Home > Time Zones > World Clock > Weather > France > Lens > Past weeks

Flag for France Weather past 2 weeks in Lens, France

Now
52 °F

Sunny.


Feels Like: 52 °F
Forecast: 39 / 64 °F
Wind: 2 mph from East

Location: Lille Airport


UV Index: 3 (Moderate)

Visibility: 10 mi


Pressure: 30.30 "Hg

Humidity: 47%

Dew point: 32 °F

Location of LensLocation

Historic Weather in Lens

°F

Lens temperature yesterday

Maximum temperature yesterday: 54 °F (at 1:30 PM)
Minimum temperature yesterday: 37 °F (at 4:00 AM)
Average temperature yesterday: 47 °F

Past Weeks' High & Low Weather Summary

 TemperatureHumidityPressure
High72 °F (Apr 7, 4:00 PM)100% (Apr 5, 7:00 AM)30.42 "Hg (Apr 5, 7:00 AM)
Low37 °F (Apr 15, 4:00 AM)36% (Apr 16, 3:30 PM)29.53 "Hg (Apr 3, 3:30 AM)
Average54 °F69%30.04 "Hg
* Reported Apr 1 8:00 PM — Apr 16 8:30 PM, Lens, Weather by CustomWeather, © 2014

Note: Actual official high and low records may vary slightly from our data, if they occured in-between our weather recording intervals... More about our weather records

Advertising

Historic Weather Conditions — Data for Previous 24 hours

 ConditionsComfort  
Time TempWeatherWind HumidityBarometerVisibility
8:30 PM
Apr 16
55 °FSunny.3 mph41%30.30 "Hg10 mi
8:00 PM57 °FPassing clouds.5 mph39%30.30 "HgN/A
7:30 PM59 °FSunny.5 mph36%30.30 "Hg10 mi
7:00 PM59 °FPassing clouds.7 mph36%30.30 "HgN/A
6:30 PM59 °FPassing clouds.7 mph36%30.30 "HgN/A
6:00 PM59 °FPassing clouds.7 mph36%30.30 "HgN/A
5:30 PM59 °FPassing clouds.9 mph36%30.30 "HgN/A
5:00 PM59 °FPassing clouds.8 mph39%30.33 "HgN/A
4:30 PM59 °FSunny.6 mph36%30.33 "Hg10 mi
4:00 PM59 °FPassing clouds.5 mph36%30.33 "HgN/A
3:30 PM59 °FPassing clouds.3 mph36%30.36 "HgN/A
3:05 PM57 °FPassing clouds.7 mph41%30.36 "HgN/A
2:30 PM57 °FSunny.6 mph41%30.36 "Hg10 mi
2:00 PM55 °FPassing clouds.6 mph44%30.36 "HgN/A
1:30 PM55 °FPassing clouds.8 mph44%30.39 "HgN/A
1:00 PM54 °FPassing clouds.7 mph47%30.39 "HgN/A
12:30 PM54 °FPassing clouds.8 mph44%30.39 "HgN/A
12:00 PM52 °FPassing clouds.7 mph47%30.39 "HgN/A
11:30 AM52 °FPassing clouds.5 mph50%30.42 "HgN/A
11:00 AM48 °FSunny.7 mph58%30.42 "Hg10 mi
10:30 AM48 °FPassing clouds.7 mph58%30.42 "HgN/A
10:00 AM46 °FPassing clouds.7 mph62%30.42 "HgN/A
9:30 AM45 °FSunny.8 mph66%30.42 "Hg10 mi
9:00 AM43 °FSunny.7 mph71%30.42 "Hg10 mi
8:30 AM41 °FSunny.6 mph70%30.39 "Hg10 mi
8:00 AM39 °FSunny.6 mph75%30.39 "Hg10 mi
7:30 AM39 °FClear.6 mph75%30.39 "Hg10 mi
7:00 AM37 °FClear.6 mph81%30.39 "Hg10 mi
6:30 AM37 °FClear.8 mph81%30.39 "Hg10 mi
6:00 AM39 °FClear.5 mph75%30.39 "Hg10 mi
5:30 AM39 °FClear.5 mph81%30.39 "Hg10 mi
5:00 AM39 °FClear.5 mph81%30.39 "Hg10 mi
4:30 AM39 °FClear.6 mph81%30.39 "HgN/A
4:00 AM39 °FClear.7 mph81%30.39 "HgN/A
3:30 AM41 °FClear.6 mph76%30.39 "HgN/A
3:00 AM41 °FClear.8 mph76%30.39 "HgN/A
1:30 AM41 °FClear.7 mph76%30.39 "Hg10 mi
1:00 AM43 °FClear.8 mph71%30.39 "Hg10 mi
12:30 AM43 °FClear.8 mph71%30.39 "Hg10 mi
12:00 AM43 °FClear.10 mph71%30.39 "Hg10 mi
11:30 PM
Apr 15
43 °FClear.9 mph71%30.39 "Hg10 mi
11:00 PM43 °FClear.8 mph71%30.39 "Hg10 mi
10:30 PM45 °FClear.8 mph61%30.39 "Hg10 mi
10:00 PM45 °FClear.8 mph61%30.39 "Hg10 mi
9:30 PM45 °FSunny.9 mph61%30.39 "Hg10 mi
9:00 PM46 °FSunny.8 mph57%30.39 "Hg10 mi
Weather by CustomWeather, © 2014

See weather overview